XAEMU MMPR-MMGL

Flight info

Callsign XAEMU
Flight time 0h 38m
Altitude 21000
Route VOLAT1D VOLAT VOLAT1B
Aircraft P180/L-SBDFGM3RWXY/LB1

Departure

Time 2026-05-08 02:51
Airport Puerto Vallarta International Airport (MMPR)

Arrival

Time 2026-05-08 03:29
Airport Guadalajara International Airport (MMGL)
Time Latitude Longitude Altitude Speed Heading
2026-05-08 02:29 20.67834 -105.25055 23 ft 0 kts 316°
2026-05-08 02:47 20.67837 -105.25058 23 ft 2 kts 316°
2026-05-08 02:47 20.67857 -105.25061 24 ft 5 kts 37°
2026-05-08 02:47 20.67887 -105.25026 24 ft 8 kts 47°
2026-05-08 02:48 20.67938 -105.24978 23 ft 12 kts 13°
2026-05-08 02:48 20.67999 -105.24948 23 ft 9 kts 338°
2026-05-08 02:48 20.68053 -105.25000 25 ft 12 kts 317°
2026-05-08 02:48 20.68083 -105.25030 23 ft 6 kts 317°
2026-05-08 02:49 20.68122 -105.25067 25 ft 7 kts 318°
2026-05-08 02:49 20.68164 -105.25108 25 ft 5 kts 317°
2026-05-08 02:49 20.68167 -105.25111 24 ft 0 kts 317°
2026-05-08 02:50 20.68181 -105.25125 24 ft 5 kts 318°
2026-05-08 02:50 20.68219 -105.25171 25 ft 10 kts 275°
2026-05-08 02:50 20.68106 -105.25308 25 ft 71 kts 227°
2026-05-08 02:50 20.67629 -105.25860 87 ft 111 kts 226°
2026-05-08 02:51 20.67111 -105.26516 416 ft 118 kts 226°
2026-05-08 02:51 20.66595 -105.27198 925 ft 127 kts 230°
2026-05-08 02:51 20.66003 -105.27950 1464 ft 135 kts 227°
2026-05-08 02:51 20.65377 -105.28699 2177 ft 134 kts 227°
2026-05-08 02:52 20.64673 -105.29421 2722 ft 149 kts 221°
2026-05-08 02:52 20.63880 -105.30160 3464 ft 155 kts 223°
2026-05-08 02:52 20.63082 -105.30966 4236 ft 154 kts 226°
2026-05-08 02:52 20.62315 -105.31750 4987 ft 160 kts 228°
2026-05-08 02:53 20.61460 -105.32622 5486 ft 177 kts 227°
2026-05-08 02:53 20.60561 -105.33547 6144 ft 185 kts 230°
2026-05-08 02:53 20.59618 -105.34514 6796 ft 190 kts 217°
2026-05-08 02:53 20.58397 -105.34835 7658 ft 181 kts 180°
2026-05-08 02:54 20.57142 -105.34753 8304 ft 185 kts 174°
2026-05-08 02:54 20.55892 -105.34310 8748 ft 197 kts 155°
2026-05-08 02:54 20.54686 -105.33513 9128 ft 208 kts 146°
2026-05-08 02:54 20.53524 -105.32618 9794 ft 202 kts 148°
2026-05-08 02:55 20.52310 -105.31879 10176 ft 210 kts 154°
2026-05-08 02:55 20.49685 -105.30371 11042 ft 214 kts 152°
2026-05-08 02:55 20.48359 -105.29652 11441 ft 215 kts 155°
2026-05-08 02:56 20.47049 -105.28880 11768 ft 220 kts 152°
2026-05-08 02:56 20.45714 -105.28045 12232 ft 218 kts 151°
2026-05-08 02:56 20.44450 -105.27239 12763 ft 212 kts 150°
2026-05-08 02:56 20.43202 -105.26405 13111 ft 216 kts 153°
2026-05-08 02:57 20.41748 -105.25792 13097 ft 232 kts 155°
2026-05-08 02:57 20.40579 -105.24554 13132 ft 251 kts 120°
2026-05-08 02:57 20.40268 -105.22674 13164 ft 268 kts 94°
2026-05-08 02:57 20.40309 -105.20693 13557 ft 258 kts 93°
2026-05-08 02:58 20.40288 -105.18843 14076 ft 247 kts 97°
2026-05-08 02:58 20.40194 -105.16996 14257 ft 251 kts 97°
2026-05-08 02:58 20.40114 -105.15130 14522 ft 253 kts 97°
2026-05-08 02:58 20.40044 -105.13254 14749 ft 254 kts 96°
2026-05-08 02:59 20.39979 -105.11367 14946 ft 256 kts 96°
2026-05-08 02:59 20.39917 -105.09535 15579 ft 236 kts 97°
2026-05-08 02:59 20.39850 -105.07804 15992 ft 235 kts 97°
2026-05-08 02:59 20.39774 -105.06057 16411 ft 237 kts 97°
2026-05-08 03:00 20.39708 -105.04293 16761 ft 239 kts 97°
2026-05-08 03:00 20.39643 -105.02513 17133 ft 242 kts 96°
2026-05-08 03:00 20.39576 -105.00717 17488 ft 244 kts 96°
2026-05-08 03:00 20.39504 -104.98903 17877 ft 246 kts 96°
2026-05-08 03:01 20.39435 -104.97075 18252 ft 248 kts 96°
2026-05-08 03:01 20.39365 -104.95222 18563 ft 251 kts 96°
2026-05-08 03:01 20.39292 -104.93361 18917 ft 252 kts 96°
2026-05-08 03:01 20.39219 -104.91488 19258 ft 254 kts 96°
2026-05-08 03:02 20.39147 -104.89606 19585 ft 255 kts 96°
2026-05-08 03:02 20.39074 -104.87710 19898 ft 257 kts 96°
2026-05-08 03:02 20.38998 -104.85797 20215 ft 259 kts 96°
2026-05-08 03:02 20.38924 -104.83873 20492 ft 263 kts 96°
2026-05-08 03:03 20.38843 -104.81889 20662 ft 270 kts 96°
2026-05-08 03:03 20.38767 -104.79891 21021 ft 270 kts 96°
2026-05-08 03:03 20.38686 -104.77844 21077 ft 283 kts 96°
2026-05-08 03:03 20.38601 -104.75706 21083 ft 295 kts 96°
2026-05-08 03:04 20.38510 -104.73488 21088 ft 304 kts 96°
2026-05-08 03:04 20.38420 -104.71201 21088 ft 313 kts 95°
2026-05-08 03:04 20.38329 -104.68849 21088 ft 321 kts 95°
2026-05-08 03:04 20.38233 -104.66454 21089 ft 326 kts 95°
2026-05-08 03:05 20.38134 -104.64018 21081 ft 332 kts 95°
2026-05-08 03:05 20.38037 -104.61550 21081 ft 335 kts 95°
2026-05-08 03:05 20.37932 -104.59060 21079 ft 338 kts 95°
2026-05-08 03:05 20.37832 -104.56579 21081 ft 340 kts 95°
2026-05-08 03:06 20.37728 -104.54053 21086 ft 342 kts 95°
2026-05-08 03:06 20.37624 -104.51513 21083 ft 344 kts 95°
2026-05-08 03:06 20.37521 -104.48930 21082 ft 345 kts 95°
2026-05-08 03:06 20.37414 -104.46402 21085 ft 346 kts 95°
2026-05-08 03:07 20.37309 -104.43836 21084 ft 347 kts 95°
2026-05-08 03:07 20.37200 -104.41264 21085 ft 348 kts 95°
2026-05-08 03:07 20.37091 -104.38649 21083 ft 349 kts 95°
2026-05-08 03:07 20.36988 -104.36059 21084 ft 350 kts 95°
2026-05-08 03:08 20.36871 -104.33506 21075 ft 350 kts 96°
2026-05-08 03:08 20.36752 -104.30882 21075 ft 350 kts 96°
2026-05-08 03:08 20.36374 -104.28379 21066 ft 346 kts 109°
2026-05-08 03:08 20.35641 -104.25904 21065 ft 345 kts 111°
2026-05-08 03:09 20.34941 -104.23493 21069 ft 346 kts 109°
2026-05-08 03:09 20.34301 -104.21022 21051 ft 346 kts 108°
2026-05-08 03:09 20.33640 -104.18522 21053 ft 345 kts 109°
2026-05-08 03:09 20.32967 -104.16105 21055 ft 345 kts 110°
2026-05-08 03:10 20.32287 -104.13653 21002 ft 347 kts 109°
2026-05-08 03:10 20.31614 -104.11174 20880 ft 350 kts 109°
2026-05-08 03:10 20.30933 -104.08676 20763 ft 352 kts 109°
2026-05-08 03:10 20.30238 -104.06166 20643 ft 354 kts 109°
2026-05-08 03:11 20.29552 -104.03645 20520 ft 355 kts 109°
2026-05-08 03:11 20.28865 -104.01120 20406 ft 355 kts 109°
2026-05-08 03:11 20.28163 -103.98596 20288 ft 356 kts 109°
2026-05-08 03:11 20.27468 -103.96071 20170 ft 356 kts 109°
2026-05-08 03:12 20.26782 -103.93541 20055 ft 355 kts 109°
2026-05-08 03:12 20.26089 -103.91014 19939 ft 355 kts 109°
2026-05-08 03:12 20.25388 -103.88498 19823 ft 354 kts 109°
2026-05-08 03:12 20.24694 -103.85984 19705 ft 354 kts 109°
2026-05-08 03:13 20.24012 -103.83473 19591 ft 352 kts 109°
2026-05-08 03:13 20.23321 -103.80968 19476 ft 352 kts 109°
2026-05-08 03:13 20.22637 -103.78489 19365 ft 346 kts 109°
2026-05-08 03:13 20.21961 -103.76055 19242 ft 340 kts 110°
2026-05-08 03:14 20.21300 -103.73650 19125 ft 336 kts 109°
2026-05-08 03:14 20.20648 -103.71276 19010 ft 332 kts 110°
2026-05-08 03:14 20.19992 -103.68932 18895 ft 328 kts 109°
2026-05-08 03:14 20.19351 -103.66612 18794 ft 325 kts 109°
2026-05-08 03:15 20.18722 -103.64317 18682 ft 321 kts 109°
2026-05-08 03:15 20.18095 -103.62056 18567 ft 317 kts 110°
2026-05-08 03:15 20.17501 -103.59822 18452 ft 310 kts 105°
2026-05-08 03:15 20.17631 -103.57576 18315 ft 306 kts 75°
2026-05-08 03:16 20.18471 -103.55520 17935 ft 309 kts 67°
2026-05-08 03:16 20.19380 -103.53445 17429 ft 308 kts 71°
2026-05-08 03:16 20.20050 -103.51291 16935 ft 305 kts 78°
2026-05-08 03:16 20.20576 -103.49106 16435 ft 304 kts 78°
2026-05-08 03:17 20.21177 -103.46979 15959 ft 296 kts 75°
2026-05-08 03:17 20.21814 -103.44924 15476 ft 289 kts 75°
2026-05-08 03:17 20.22401 -103.42897 15007 ft 283 kts 77°
2026-05-08 03:17 20.22959 -103.40914 14567 ft 276 kts 76°
2026-05-08 03:18 20.23511 -103.39009 14321 ft 266 kts 76°
2026-05-08 03:18 20.24057 -103.37112 14092 ft 270 kts 76°
2026-05-08 03:18 20.24613 -103.35196 13867 ft 271 kts 76°
2026-05-08 03:18 20.25168 -103.33270 13574 ft 274 kts 76°
2026-05-08 03:19 20.25723 -103.31346 13247 ft 270 kts 76°
2026-05-08 03:19 20.26269 -103.29448 12929 ft 267 kts 76°
2026-05-08 03:19 20.26809 -103.27576 12607 ft 260 kts 76°
2026-05-08 03:19 20.27332 -103.25760 12286 ft 253 kts 76°
2026-05-08 03:20 20.27842 -103.23988 11968 ft 249 kts 75°
2026-05-08 03:20 20.28344 -103.22241 11659 ft 245 kts 75°
2026-05-08 03:20 20.28837 -103.20523 11334 ft 241 kts 76°
2026-05-08 03:20 20.29325 -103.18823 11025 ft 239 kts 76°
2026-05-08 03:21 20.29806 -103.17153 10837 ft 230 kts 73°
2026-05-08 03:21 20.30295 -103.15541 10864 ft 233 kts 74°
2026-05-08 03:21 20.30816 -103.13884 10888 ft 238 kts 73°
2026-05-08 03:21 20.31433 -103.12224 10887 ft 243 kts 60°
2026-05-08 03:22 20.32523 -103.10849 10743 ft 244 kts 43°
2026-05-08 03:22 20.33790 -103.09700 10634 ft 232 kts 30°
2026-05-08 03:22 20.35250 -103.09058 10337 ft 226 kts 18°
2026-05-08 03:22 20.36762 -103.08569 9917 ft 228 kts 12°
2026-05-08 03:23 20.38280 -103.08073 9571 ft 226 kts 15°
2026-05-08 03:23 20.39743 -103.07535 9302 ft 218 kts 12°
2026-05-08 03:23 20.41209 -103.07228 8982 ft 212 kts 359°
2026-05-08 03:23 20.42610 -103.07454 8671 ft 200 kts 327°
2026-05-08 03:24 20.43442 -103.08549 8456 ft 189 kts 288°
2026-05-08 03:24 20.43793 -103.09870 8311 ft 182 kts 280°
2026-05-08 03:24 20.44045 -103.11182 8123 ft 182 kts 282°
2026-05-08 03:24 20.44430 -103.12474 7938 ft 181 kts 285°
2026-05-08 03:25 20.44850 -103.13640 7904 ft 157 kts 296°
2026-05-08 03:25 20.45319 -103.14629 7626 ft 144 kts 289°
2026-05-08 03:25 20.45704 -103.15642 7472 ft 152 kts 291°
2026-05-08 03:25 20.46136 -103.16690 7230 ft 157 kts 293°
2026-05-08 03:26 20.46578 -103.17714 7062 ft 145 kts 291°
2026-05-08 03:26 20.46958 -103.18692 6920 ft 139 kts 291°
2026-05-08 03:26 20.47354 -103.19616 6832 ft 136 kts 293°
2026-05-08 03:26 20.47754 -103.20532 6673 ft 138 kts 292°
2026-05-08 03:27 20.48130 -103.21455 6445 ft 130 kts 292°
2026-05-08 03:27 20.48488 -103.22305 6371 ft 126 kts 292°
2026-05-08 03:27 20.48827 -103.23168 6227 ft 127 kts 293°
2026-05-08 03:27 20.49197 -103.24032 6143 ft 130 kts 294°
2026-05-08 03:28 20.49570 -103.24923 5990 ft 134 kts 293°
2026-05-08 03:28 20.49962 -103.25820 5819 ft 132 kts 291°
2026-05-08 03:28 20.50357 -103.26724 5627 ft 137 kts 287°
2026-05-08 03:28 20.50748 -103.27673 5406 ft 141 kts 290°
2026-05-08 03:29 20.51136 -103.28611 5209 ft 134 kts 294°
2026-05-08 03:29 20.51492 -103.29470 5040 ft 118 kts 292°
2026-05-08 03:29 20.51791 -103.30179 5023 ft 92 kts 294°
2026-05-08 03:29 20.51966 -103.30598 5022 ft 34 kts 294°
2026-05-08 03:30 20.51957 -103.30714 5023 ft 14 kts 203°
2026-05-08 03:30 20.51854 -103.30783 5023 ft 8 kts 261°
2026-05-08 03:31 20.51935 -103.30990 5024 ft 18 kts 294°
2026-05-08 03:31 20.52040 -103.31242 5024 ft 17 kts 293°
2026-05-08 03:32 20.52074 -103.31329 5024 ft 2 kts 276°
2026-05-08 03:32 20.52066 -103.31350 5024 ft 5 kts 227°
2026-05-08 03:32 20.51966 -103.31440 5023 ft 13 kts 215°
2026-05-08 03:32 20.51957 -103.31464 5023 ft 3 kts 274°
2026-05-08 03:33 20.51962 -103.31473 5023 ft 0 kts 296°